User: anonymous   Login
Location: Whitehorse
(60.7170°N, 135.0500°W)
Time: 08:21:31
(UTC-07:00)
Language:

Cosmos 2219 Rocket - Orbit

View from above orbital plane
View from above orbital plane
View from above satellite
View from above satellite

Ground track
Ground track

The orbit data is extracted from the following two-line orbital elements,

1 22220U 92076B   15208.84971714 -.00000248  00000-0 -10063-3 0  9998
2 22220 071.0001 072.3203 0014947 248.6440 186.9525 14.16372715173025
Epoch (UTC): 27 July 2015 20:23:35
Eccentricity: 0.0014947
inclination: 71.0001°
perigee height: 827 km
apogee height: 848 km
right ascension of ascending node: 72.3203°
argument of perigee: 248.6440°
revolutions per day: 14.16372715
mean anomaly at epoch: 186.9525°
orbit number at epoch: 17302

The dashed part of the orbit path shows where the satellite is in the earth's shadow,  

DLR